Miscellaneous Local Product
Issued by NWS Hastings, NE

Home | Current Version | Previous Version | Graphics & Text | Print | Product List | Glossary On
Versions: 1 2 3 4 5 6 7 8 9 10 11 12 13 14 15 16 17 18 19 20 21 22 23 24 25 26 27 28 29 30 31 32 33 34 35 36 37 38 39 40 41 42 43 44 45 46 47 48 49 50
849
AXUS43 KGID 160802
MISGRI

GID CWA HOURLY WEATHER ROUNDUP
NATIONAL WEATHER SERVICE HASTINGS NE
200 AM CST FRI FEB 16 2018

NOTE: "FAIR" INDICATES FEW OR NO CLOUDS BELOW 12,000 FEET WITH NO
SIGNIFICANT WEATHER AND/OR OBSTRUCTIONS TO VISIBILITY.

...SOUTH CENTRAL NEBRASKA...

CITY           SKY/WX    TMP DP  RH WIND       PRES   REMARKS
GRAND ISLAND   CLOUDY    18  11  74 N22G31    30.39R WCI   1
KEARNEY        FLURRIES  18  13  80 N18       30.39R WCI   2
HASTINGS       CLOUDY    18  12  77 N22G31    30.39R WCI   1
ORD            PTCLDY    14   8  77 NW17G28   30.39R WCI  -3
YORK           CLOUDY    18  14  86 N23G29    30.37R WCI   0
AURORA         PTCLDY    18  12  79 N20G25    30.39R WCI   1
LEXINGTON      CLOUDY    18  12  77 N21       30.40R WCI   2
HOLDREGE       CLOUDY    19  14  81 N15G23    30.38R WCI   5
HEBRON         CLOUDY    23  16  75 N17G26    30.37R WCI   9

...NEBRASKA PANHANDLE...

CITY           SKY/WX    TMP DP  RH WIND       PRES   REMARKS
CHADRON        CLEAR     -3  -7  82 W6        30.34F WCI -15
ALLIANCE       CLEAR      6   4  91 SW7       30.32S WCI  -6
SCOTTSBLUFF    CLEAR     16  11  80 CALM      30.34S
SIDNEY         CLEAR      7   4  87 S6        30.33S WCI  -3

...WESTERN AND NORTH CENTRAL NEBRASKA...

CITY           SKY/WX    TMP DP  RH WIND       PRES   REMARKS
VALENTINE      CLEAR      6  -1  73 W7        30.39F WCI  -6
AINSWORTH      CLEAR      8   4  84 NW8       30.38S WCI  -4
ONEILL         CLEAR     11   7  86 NW13G18   30.42R WCI  -4
BROKEN BOW     CLOUDY    14   8  77 N21       30.38R WCI  -4
IMPERIAL       CLEAR     17  11  77 N17       30.37S WCI   1
NORTH PLATTE   PTCLDY    13   7  77 NW13      30.41R WCI  -2
MCCOOK         MOCLDY    19  13  77 N15       30.40R WCI   5

...EASTERN NEBRASKA...

CITY           SKY/WX    TMP DP  RH WIND       PRES   REMARKS
NORFOLK        PTCLDY    11   4  73 NW23G32   30.38R WCI  -9
SO SIOUX CITY  CLOUDY    11   5  77 NW24      30.40R WCI  -9
TEKAMAH        CLEAR     15   7  70 NW17      30.40R WCI  -1
COLUMBUS       CLOUDY    14   8  77 N13G20    30.42R WCI   0
ALBION         PTCLDY    14   5  67 N20G32    30.39R WCI  -4
OMAHA EPPLEY   MOCLDY    20  12  71 N25G36    30.36R WCI   2
OFFUTT AFB     FLURRIES  21  14  73 NW18G24   30.35R WCI   6
MILLARD        CLOUDY    20  12  72 N15G23    30.38R WCI   6
LINCOLN        PTCLDY    20  12  71 N24       30.38R WCI   3
NEBRASKA CITY  CLOUDY    25  20  83 N23G33    30.31R WCI  10
BEATRICE       CLOUDY    24  18  77 N30G36    30.34R WCI   7
FALLS CITY     MOCLDY    27  19  72 N21G30    30.28R WCI  13

...NORTHERN KANSAS...

CITY           SKY/WX    TMP DP  RH WIND       PRES   REMARKS
GOODLAND       CLOUDY    19  14  81 N17       30.34R WCI   4
HILL CITY      CLOUDY    24  17  74 N17       30.39R WCI  11
NORTON         PTSUNNY   19  12  73 N15       30.39R WCI   5
PHILLIPSBURG   PTCLDY    25  16  68 NW15G23   30.40R WCI  12
SMITH CENTER   CLOUDY    21  14  73 N22G29    30.39R WCI   5
BELOIT         MOCLDY    25  18  74 N25       30.36R WCI   9
HAYS           CLOUDY    26  18  71 N25G31    30.35R WCI  11
RUSSELL        CLOUDY    29  20  69 N28G35    30.33R WCI  14
CONCORDIA      MOCLDY    24  16  71 N24G37    30.34R WCI   8
SALINA         CLOUDY    31  22  69 N24G33    30.31R WCI  17
TOPEKA         CLOUDY    33  25  72 N17G25    30.25R WCI  22



USA.gov is the U.S. government's official web portal to all federal, state and local government web resources and services.